Crane Lake, MN

10:27 PM CST on January 19, 2018 (GMT -0600)
Crane Lake

Weather History for KCDD - December, 2012

Change the Weather History Date:

Monday, December 24, 2012

  Actual Average Record
Temperature  
Mean Temperature -5 °F -  
Max Temperature 1 °F 16 °F 41 °F (2006)
Min Temperature -11 °F 0 °F -34 °F (2004)
Degree Days  
Heating Degree Days 70    
Moisture  
Dew Point -8 °F    
Average Humidity 87    
Maximum Humidity 92    
Minimum Humidity 77    
Precipitation  
Precipitation 0.00 in - - ()
Sea Level Pressure  
Sea Level Pressure 30.16 in    
Wind  
Wind Speed 3 mph (NW)    
Max Wind Speed 7 mph    
Max Gust Speed -    
Visibility 10 miles    
Events Snow    
Averages and records for this station are not official NWS values.
T = Trace of Precipitation, MM = Missing Value Source: NWS Daily Summary

Daily Weather History Graph

Daily Weather History Graph

Search for Another Location

Airport or City:

Trip Planner

Search our weather history database for the weather conditions in past years. The results will help you decide how hot, cold, wet, or windy it might be!

Date:

Astronomy

Dec. 24, 2012 Rise Set
Actual Time 7:59 AM CST 4:20 PM CST
Civil Twilight 7:22 AM CST 4:56 PM CST
Nautical Twilight 6:43 AM CST 5:36 PM CST
Astronomical Twilight 6:04 AM CST 6:14 PM CST
Moon 1:53 PM CST (12/24) 4:32 AM CST (12/24)
Length of Visible Light 9h 33m
Length of Day
8h 20m
Waxing Gibbous, 88% of the Moon is Illuminated
Dec 24
Waxing Gibbous
Dec 28
Full
Jan 4
Last Quarter
Jan 11
New
Jan 18
First Quarter

Hourly Weather History & Observations

Time (CST) Temp. Windchill Dew Point Humidity Pressure Visibility Wind Dir Wind Speed Gust Speed Precip Events Conditions
12:03 AM -2.2 °F -12.5 °F -5.8 °F 85% 30.08 in 10.0 mi NW 4.6 mph - N/A   Overcast
12:23 AM -2.2 °F -12.5 °F -5.8 °F 85% 30.08 in 10.0 mi NW 4.6 mph - N/A   Overcast
12:43 AM -2.2 °F -10.4 °F -5.8 °F 85% 30.08 in 10.0 mi NW 3.5 mph - N/A   Overcast
1:03 AM -2.2 °F -12.5 °F -5.8 °F 85% 30.08 in 10.0 mi NW 4.6 mph - N/A   Overcast
1:23 AM -2.2 °F -10.4 °F -5.8 °F 85% 30.08 in 10.0 mi WNW 3.5 mph - N/A   Overcast
1:43 AM -2.2 °F - -5.8 °F 85% 30.08 in 10.0 mi Calm Calm - N/A   Overcast
2:03 AM -2.2 °F - -5.8 °F 85% 30.09 in 10.0 mi Calm Calm - N/A   Overcast
2:23 AM -2.2 °F - -5.8 °F 85% 30.09 in 10.0 mi Calm Calm - N/A   Overcast
2:43 AM -2.2 °F - -5.8 °F 85% 30.10 in 10.0 mi Calm Calm - N/A   Overcast
3:03 AM -2.2 °F - -5.8 °F 85% 30.10 in 10.0 mi Calm Calm - N/A   Overcast
3:23 AM -4.0 °F - -5.8 °F 92% 30.10 in 10.0 mi Calm Calm - N/A   Overcast
3:43 AM -4.0 °F - -5.8 °F 92% 30.10 in 10.0 mi Calm Calm - N/A   Overcast
4:03 AM -4.0 °F -14.6 °F -5.8 °F 92% 30.09 in 10.0 mi NW 4.6 mph - N/A   Overcast
4:23 AM -4.0 °F -17.8 °F -5.8 °F 92% 30.09 in 10.0 mi NNW 6.9 mph - N/A   Overcast
5:03 AM -5.8 °F -16.7 °F -7.6 °F 92% 30.10 in 10.0 mi NW 4.6 mph - N/A   Mostly Cloudy
5:23 AM -5.8 °F -18.4 °F -9.4 °F 84% 30.10 in 10.0 mi NW 5.8 mph - N/A   Scattered Clouds
5:43 AM -5.8 °F -18.4 °F -9.4 °F 84% 30.10 in 10.0 mi NW 5.8 mph - N/A   Scattered Clouds
6:03 AM -7.6 °F - -9.4 °F 92% 30.10 in 7.0 mi Calm Calm - N/A   Mostly Cloudy
6:23 AM -7.6 °F -16.5 °F -9.4 °F 92% 30.11 in 10.0 mi NW 3.5 mph - N/A   Scattered Clouds
6:43 AM -7.6 °F -22.1 °F -11.2 °F 84% 30.11 in 10.0 mi NW 6.9 mph - N/A   Clear
7:03 AM -9.4 °F - -11.2 °F 92% 30.11 in 10.0 mi Calm Calm - N/A   Clear
7:23 AM -9.4 °F -20.9 °F -11.2 °F 92% 30.11 in 10.0 mi NW 4.6 mph - N/A   Clear
7:43 AM -9.4 °F -18.6 °F -13.0 °F 84% 30.11 in 10.0 mi NW 3.5 mph - N/A   Clear
8:03 AM -9.4 °F - -14.8 °F 77% 30.11 in 10.0 mi Calm Calm - N/A   Clear
8:23 AM -9.4 °F - -14.8 °F 77% 30.12 in 10.0 mi Calm Calm - N/A   Clear
8:43 AM -11.2 °F - -14.8 °F 84% 30.13 in 10.0 mi Calm Calm - N/A   Clear
9:03 AM -9.4 °F -20.9 °F -13.0 °F 84% 30.13 in 10.0 mi NW 4.6 mph - N/A   Mostly Cloudy
9:23 AM -9.4 °F -24.3 °F -11.2 °F 92% 30.14 in 10.0 mi NW 6.9 mph - N/A   Overcast
9:43 AM -7.6 °F -16.5 °F -11.2 °F 84% 30.14 in 7.0 mi NNW 3.5 mph - N/A   Overcast
10:03 AM -7.6 °F -18.8 °F -9.4 °F 92% 30.15 in 7.0 mi NNW 4.6 mph - N/A   Overcast
10:23 AM -4.0 °F -14.6 °F -7.6 °F 85% 30.15 in 7.0 mi NW 4.6 mph - N/A   Overcast
10:43 AM -4.0 °F -12.4 °F -7.6 °F 85% 30.15 in 10.0 mi NW 3.5 mph - N/A   Overcast
11:03 AM -4.0 °F -14.6 °F -7.6 °F 85% 30.15 in 10.0 mi NNW 4.6 mph - N/A   Overcast
11:23 AM -2.2 °F -14.2 °F -5.8 °F 85% 30.15 in 10.0 mi NW 5.8 mph - N/A   Overcast
11:43 AM -0.4 °F -12.0 °F -5.8 °F 78% 30.15 in 10.0 mi NNW 5.8 mph - N/A   Overcast
12:03 PM -0.4 °F -12.0 °F -5.8 °F 78% 30.15 in 10.0 mi NNW 5.8 mph - N/A   Overcast
12:23 PM -0.4 °F -12.0 °F -4.0 °F 85% 30.15 in 10.0 mi NW 5.8 mph - N/A   Overcast
12:43 PM -0.4 °F -12.0 °F -4.0 °F 85% 30.15 in 10.0 mi West 5.8 mph - N/A   Mostly Cloudy
1:03 PM 1.4 °F -9.9 °F -2.2 °F 85% 30.15 in 10.0 mi WSW 5.8 mph - N/A   Mostly Cloudy
1:23 PM 1.4 °F -9.9 °F -2.2 °F 85% 30.16 in 10.0 mi NW 5.8 mph - N/A   Mostly Cloudy
1:43 PM 1.4 °F -11.3 °F -2.2 °F 85% 30.15 in 10.0 mi NW 6.9 mph - N/A   Mostly Cloudy
2:03 PM -0.4 °F -10.4 °F -2.2 °F 92% 30.16 in 10.0 mi NW 4.6 mph - N/A   Mostly Cloudy
2:23 PM -0.4 °F -10.4 °F -2.2 °F 92% 30.16 in 10.0 mi NNW 4.6 mph - N/A   Scattered Clouds
2:43 PM -0.4 °F -8.3 °F -2.2 °F 92% 30.16 in 10.0 mi NNW 3.5 mph - N/A   Scattered Clouds
3:03 PM -0.4 °F - -4.0 °F 85% 30.17 in 10.0 mi Calm Calm - N/A   Mostly Cloudy
3:23 PM -2.2 °F -10.4 °F -5.8 °F 85% 30.17 in 10.0 mi NW 3.5 mph - N/A   Mostly Cloudy
3:43 PM -2.2 °F -10.4 °F -5.8 °F 85% 30.17 in 10.0 mi NNW 3.5 mph - N/A   Scattered Clouds
4:03 PM -4.0 °F - -7.6 °F 85% 30.17 in 10.0 mi Calm Calm - N/A   Scattered Clouds
4:23 PM -5.8 °F - -7.6 °F 92% 30.18 in 10.0 mi Calm Calm - N/A   Clear
4:43 PM -5.8 °F - -7.6 °F 92% 30.18 in 10.0 mi Calm Calm - N/A   Clear
5:03 PM -5.8 °F - -9.4 °F 84% 30.18 in 10.0 mi Calm Calm - N/A   Clear
5:23 PM -7.6 °F - -9.4 °F 92% 30.18 in 10.0 mi Calm Calm - N/A   Clear
5:43 PM -7.6 °F - -9.4 °F 92% 30.19 in 10.0 mi Calm Calm - N/A   Clear
6:03 PM -7.6 °F - -11.2 °F 84% 30.19 in 10.0 mi Calm Calm - N/A   Clear
6:23 PM -7.6 °F - -11.2 °F 84% 30.20 in 10.0 mi Calm Calm - N/A   Clear
6:43 PM -7.6 °F - -11.2 °F 84% 30.21 in 10.0 mi Calm Calm - N/A   Mostly Cloudy
7:03 PM -7.6 °F - -9.4 °F 92% 30.21 in 10.0 mi Calm Calm - N/A   Overcast
7:23 PM -5.8 °F -16.7 °F -9.4 °F 84% 30.21 in 10.0 mi NW 4.6 mph - N/A   Overcast
7:43 PM -5.8 °F -16.7 °F -9.4 °F 84% 30.22 in 10.0 mi NNW 4.6 mph - N/A   Overcast
8:03 PM -5.8 °F - -9.4 °F 84% 30.23 in 7.0 mi Calm Calm - N/A   Overcast
8:23 PM -5.8 °F - -9.4 °F 84% 30.23 in 5.0 mi Calm Calm - N/A Snow Light Snow
8:43 PM -7.6 °F -16.5 °F -9.4 °F 92% 30.24 in 10.0 mi NW 3.5 mph - N/A   Overcast
9:03 PM -7.6 °F - -9.4 °F 92% 30.25 in 10.0 mi Calm Calm - N/A   Overcast
9:23 PM -7.6 °F - -9.4 °F 92% 30.26 in 10.0 mi Calm Calm - N/A   Overcast
9:43 PM -7.6 °F - -9.4 °F 92% 30.26 in 10.0 mi Calm Calm - N/A   Overcast
10:03 PM -7.6 °F - -11.2 °F 84% 30.26 in 10.0 mi Calm Calm - N/A   Overcast
10:23 PM -7.6 °F - -11.2 °F 84% 30.27 in 10.0 mi Calm Calm - N/A   Overcast
10:43 PM -7.6 °F - -11.2 °F 84% 30.28 in 10.0 mi Calm Calm - N/A   Overcast
11:03 PM -7.6 °F - -11.2 °F 84% 30.28 in 10.0 mi Calm Calm - N/A   Overcast
11:23 PM -9.4 °F -18.6 °F -11.2 °F 92% 30.29 in 10.0 mi West 3.5 mph - N/A   Mostly Cloudy
11:43 PM -9.4 °F - -11.2 °F 92% 30.29 in 10.0 mi Calm Calm - N/A   Mostly Cloudy